Regional Weather Roundup
Issued by NWS

Home | Current Version | Previous Version | Graphics & Text | Print | Product List | Glossary On
Versions: 1 2 3 4 5 6 7 8 9 10 11 12 13 14 15 16 17 18 19 20 21 22 23 24 25 26 27 28 29 30 31 32 33 34 35 36 37 38 39 40 41 42 43 44 45 46 47 48 49 50
000
ASUS45 KBOU 040507
RWRCO

WEATHER ROUNDUP FOR COLORADO
NATIONAL WEATHER SERVICE DENVER/BOULDER CO
1100 PM MDT SUN MAY 03 2015

NOTE: "FAIR" INDICATES FEW OR NO CLOUDS BELOW 12000 FEET WITH NO
SIGNIFICANT WEATHER AND/OR OBSTRUCTIONS TO VISIBILITY.

COZ001>005-013-030-031-040600-
...NORTHWEST COLORADO...

CITY           SKY/WX    TMP DP  RH WIND       PRES   REMARKS
CRAIG          LGT RAIN  55  39  54 S9        30.09R
HAYDEN         CLOUDY    50  36  57 W9        30.09S
MEEKER         CLOUDY    48  44  86 SE9       30.10F
MOUNT WERNER   NOT AVBL
STEAMBOAT SPGS CLOUDY    49  37  65 CALM      30.10S
WALDEN         CLOUDY    39  34  81 SE5       30.15S
$$

COZ006>008-011-040600-
...WEST CENTRAL VALLEYS...

CITY           SKY/WX    TMP DP  RH WIND       PRES   REMARKS
GRAND JUNCTION PTCLDY    59  41  51 SE15      30.01R
MONTROSE       CLOUDY    55  39  54 E7        30.09R
EAGLE          CLOUDY    46  45  93 CALM      30.13S
RIFLE          RAIN      51  47  86 W12       30.10R
DELTA          MOCLDY    56  48  72 CALM      30.04S
NUCLA          MOCLDY    57  36  44 SE10      30.07S
$$

COZ017>023-064>068-040600-
...SOUTHWEST COLORADO...

CITY           SKY/WX    TMP DP  RH WIND       PRES   REMARKS
DURANGO        MOCLDY    47  39  74 NE9       30.09F
CORTEZ         MOCLDY    53  37  54 E13       30.02F
PAGOSA SPRINGS MOCLDY    44  40  85 CALM      30.15F
TELLURIDE      RAIN      41  38  89 NE3       30.21S
WOLF CREEK PAS NOT AVBL
$$

COZ009-010-012-014-032>034-037-058>063-040600-
...CENTRAL COLORADO...

CITY           SKY/WX    TMP DP  RH WIND       PRES   REMARKS
ASPEN          CLOUDY    42  38  85 SW3       30.13S
BUENA VISTA    NOT AVBL
COPPER MTN     CLOUDY    37  30  75 S8        30.31S
BERTHOUD PASS  HAZE      28  21  74 E21G31    30.35S VSB<1/4 WCI  15
COTTONWOOD PAS CLOUDY    45  32  61 W7        30.23F
GUNNISON       CLOUDY    43  37  81 N8        30.21S
KREMMLING      CLOUDY    50  36  57 S6        30.14S
LEADVILLE      MOCLDY    35  31  85 E3        30.21F
MONARCH PASS   HVY SNOW  32  30  93 W18       30.42S VSB<1/4 WCI  20
SALIDA         MOCLDY    49  37  65 W9        30.21S
SUNLIGHT       CLOUDY    37  34  87 CALM      30.30S
WILKERSON PASS LGT SNOW  34  32  93 NE6       30.32F WCI  29
$$

COZ069>075-040600-
...SAN LUIS VALLEY/SANGRE DE CRISTO MOUNTAINS...

CITY           SKY/WX    TMP DP  RH WIND       PRES   REMARKS
ALAMOSA        CLOUDY    47  38  71 E6        30.13R
LA VETA PASS   RAIN      39  34  81 MISG      30.27R
SAGUACHE       CLOUDY    46  36  66 N5        30.17R
$$

COZ035-036-038>040-040600-
...NORTHERN COLORADO FRONT RANGE...

CITY           SKY/WX    TMP DP  RH WIND       PRES   REMARKS
DENVER INTL AP PTCLDY    51  44  77 SW8       30.08R
DMNS CITY PARK   N/A     52  43  71 SW5       30.10S
AURORA         MOCLDY    50  44  81 SW7       30.11R
FRONT RANGE AP NOT AVBL
ERIE MUNI ARPT PTCLDY    49  45  85 S3        30.08S
BOULDER MUN AP PTCLDY    52  46  82 CALM      30.08F
CENTENNIAL     MOCLDY    48  44  86 SW8       30.11S
BROOMFIELD     NOT AVBL
FORT COLLINS   PTCLDY    54  43  66 CALM      30.08F
LONGMONT       PTCLDY    50  45  84 NW6       30.09F
$$

COZ041-046-047-076>085-087-088-040600-
...PIKES PEAK/PALMER DIVIDE AND SOUTHERN FOOTHILLS...

CITY           SKY/WX    TMP DP  RH WIND       PRES   REMARKS
COLO. SPRINGS  LGT RAIN  53  41  63 NW14      30.12R
A. F. ACADEMY  CLOUDY    50  40  68 VRB7      30.13R
ELLICOTT       CLOUDY     1   1 100 NE15      30.07F WCI -18
FALCON         LGT RAIN  49  40  70 N8        30.14R
FORT CARSON    CLOUDY    54  41  61 NW18      30.09R
LIMON          CLOUDY    50  43  77 S6        30.08R
MONUMENT HILL  CLOUDY    45  41  87 W3        30.15R
TRINIDAD       MOCLDY    51  40  65 W8        30.05R
$$

COZ042>045-048>051-090-091-040600-
...NORTHEAST COLORADO...

CITY           SKY/WX    TMP DP  RH WIND       PRES   REMARKS
GREELEY ARPT   PTCLDY    48  41  76 NW8       30.07S
AKRON          CLOUDY    57  44  62 E8        30.04R
BURLINGTON     LGT RAIN  56  52  86 NW9       30.05S
WRAY           CLOUDY    62  41  46 NE14      30.00R
STERLING       CLOUDY    59  43  55 CALM      30.02R
HOLYOKE        NOT AVBL
FORT MORGAN    CLOUDY    55 -11   6 W7        30.05R
$$

COZ086-089-092>099-040600-
...SOUTHEAST COLORADO...

CITY           SKY/WX    TMP DP  RH WIND       PRES   REMARKS
PUEBLO         CLOUDY    59  43  55 N15       30.03R
LA JUNTA       CLOUDY    61  48  62 N14       29.98R
LAMAR          CLOUDY    63  49  60 E7        29.95R
SPRINGFIELD      N/A     58  50  75 SE8       29.96S
$$



USA.gov is the U.S. government's official web portal to all federal, state and local government web resources and services.